15min,AgWx,beryljct,423,15JUL2019:00:00:00,67.0,12.95,64.7,66.1,67.5,70.0,65.2,47,52,43,1.073,46.7,48.7,45.5,4.582,3.6,355,34,8.3,0.00015,0.00025,72.7,71.7,9,0,.,.,16.04,0.00,0.00
15min,AgWx,beryljct,423,15JUL2019:00:15:00,66.2,12.95,64.9,65.4,65.3,67.1,63.8,52,56,46,1.114,47.3,49.0,45.7,1.096,1.8,89,79,4.5,-0.00010,-0.00011,72.4,71.7,10,0,.,.,16.04,0.00,0.00
15min,AgWx,beryljct,423,15JUL2019:00:30:00,65.3,12.94,64.5,63.4,63.3,65.3,61.7,58,62,52,1.082,48.0,49.0,46.7,0.702,0.8,54,5.4,4.3,-0.00025,-0.00036,72.1,71.6,9,0,.,.,16.04,0.00,0.00
15min,AgWx,beryljct,423,15JUL2019:00:45:00,64.3,12.93,65.7,63.8,63.5,65.4,61.7,54,58,49,1.080,46.6,47.4,45.9,0,0.9,262,47,3.9,-0.00023,-0.00033,71.8,71.6,10,0,.,.,16.04,0.00,0.00
15min,AgWx,beryljct,423,15JUL2019:01:00:00,63.9,12.93,63.7,63.8,65.3,67.8,63.4,51,55,45,1.076,46.5,47.3,45.6,1.074,2.3,122,18,5.3,-0.00003,0.00000,71.5,71.6,10,0,.,.,16.04,0.00,0.00
15min,AgWx,beryljct,423,15JUL2019:01:15:00,63.2,12.93,56.7,57.7,60.2,64.0,57.6,62,69,52,1.114,47.0,48.0,46.0,2.017,1.6,106,68,4.7,-0.00015,-0.00019,71.1,71.5,9,0,.,.,16.04,0.00,0.00
15min,AgWx,beryljct,423,15JUL2019:01:30:00,61.8,12.92,63.0,61.0,57.5,61.0,55.9,64,70,54,0.995,45.4,47.4,44.5,3.354,3.1,311,1.9,4.0,-0.00003,-0.00000,70.8,71.4,10,0,.,.,16.04,0.00,0.00
15min,AgWx,beryljct,423,15JUL2019:01:45:00,61.0,12.9,62.3,61.8,60.9,63.0,58.0,55,64,49,0.985,44.6,46.1,43.6,1.25,1.8,308,0.2,3.9,-0.00011,-0.00012,70.5,71.4,9,0,.,.,16.04,0.00,0.00
15min,AgWx,beryljct,423,15JUL2019:02:00:00,60.2,12.9,57.0,58.7,58.8,62.2,57.6,62,68,51,1.028,45.9,47.1,44.0,0,0.1,308,0.0,1.2,-0.00035,-0.00056,70.2,71.3,9,0,.,.,16.04,0.00,0.00
15min,AgWx,beryljct,423,15JUL2019:02:15:00,59.5,12.9,61.6,58.6,59.1,61.1,56.9,59,65,53,1.002,44.8,45.5,44.0,0.504,0.4,285,8.4,3.1,-0.00031,-0.00047,69.9,71.2,9,0,.,.,16.04,0.00,0.00
15min,AgWx,beryljct,423,15JUL2019:02:30:00,58.9,12.9,56.9,57.0,58.3,61.1,56.2,62,67,52,1.056,45.2,46.2,43.3,0,0.4,153,26,3.0,-0.00030,-0.00046,69.6,71.1,10,0,.,.,16.04,0.00,0.00
15min,AgWx,beryljct,423,15JUL2019:02:45:00,58.2,12.89,56.3,57.6,56.7,57.7,55.7,68,72,62,1.010,46.1,47.5,44.7,1.008,0.5,147,0.8,2.9,-0.00028,-0.00042,69.3,71.0,10,0,.,.,16.04,0.00,0.00
15min,AgWx,beryljct,423,15JUL2019:03:00:00,57.6,12.89,54.4,55.0,55.8,57.5,54.7,67,69,63,0.986,44.9,45.8,44.2,1.929,1.1,158,15,3.9,-0.00021,-0.00029,69.0,71.0,10,0,.,.,16.04,0.00,0.00
15min,AgWx,beryljct,423,15JUL2019:03:15:00,56.9,12.88,55.6,56.6,56.1,58.0,54.1,62,69,55,0.956,43.3,44.3,41.9,2.105,2.2,186,2.0,3.9,-0.00009,-0.00010,68.7,70.8,10,0,.,.,16.04,0.00,0.00
15min,AgWx,beryljct,423,15JUL2019:03:30:00,56.4,12.86,56.1,54.3,55.1,56.5,54.3,63,67,58,0.926,42.9,44.1,41.9,2.894,2.1,186,0.6,3.1,-0.00010,-0.00011,68.5,70.8,10,0,.,.,16.04,0.00,0.00
15min,AgWx,beryljct,423,15JUL2019:03:45:00,55.7,12.88,52.3,55.2,54.4,56.7,51.9,66,75,56,0.918,43.1,44.5,41.1,2.543,1.0,189,5.9,3.0,-0.00022,-0.00030,68.2,70.7,9,0,.,.,16.04,0.00,0.00
15min,AgWx,beryljct,423,15JUL2019:04:00:00,55.2,12.88,56.0,57.0,55.2,57.3,53.4,62,68,55,0.896,42.5,43.3,41.4,0.702,1.6,216,57,3.3,-0.00015,-0.00019,67.9,70.6,10,0,.,.,16.04,0.00,0.00
15min,AgWx,beryljct,423,15JUL2019:04:15:00,54.8,12.87,50.9,53.4,54.6,57.0,51.9,65,75,57,0.952,43.1,44.6,41.8,2.017,1.1,306,39,2.7,-0.00021,-0.00029,67.6,70.4,10,0,.,.,16.04,0.00,0.00
15min,AgWx,beryljct,423,15JUL2019:04:30:00,54.2,12.87,56.8,53.2,52.8,53.9,51.4,72,75,69,1.001,44.1,44.6,43.1,3.266,1.3,227,12,3.5,-0.00020,-0.00027,67.4,70.3,10,0,.,.,16.04,0.00,0.00
15min,AgWx,beryljct,423,15JUL2019:04:45:00,54.1,12.87,56.5,57.0,56.3,58.0,53.5,64,72,59,0.963,44.2,45.0,43.3,4.077,3.2,207,0.1,4.1,0.00031,0.00054,67.1,70.2,9,0,.,.,16.04,0.00,0.00
15min,AgWx,beryljct,423,15JUL2019:05:00:00,54.5,12.86,51.5,53.2,57.2,59.0,53.2,62,70,58,0.972,44.4,45.3,43.3,0,3.1,173,19,4.5,0.00032,0.00056,66.8,70.1,10,0,.,.,16.04,0.00,0.00
15min,AgWx,beryljct,423,15JUL2019:05:15:00,54.4,12.86,52.0,52.7,53.2,54.2,52.6,71,73,68,0.957,43.9,44.7,43.4,1.381,1.1,173,3.6,2.4,0.00010,0.00016,66.6,70.0,10,1,.,.,16.04,0.00,0.00
15min,AgWx,beryljct,423,15JUL2019:05:30:00,53.8,12.85,52.2,53.0,53.4,54.3,52.6,65,71,61,0.900,41.7,43.4,39.9,2.653,2.5,174,0.7,3.1,0.00025,0.00042,66.3,69.9,9,3,.,.,16.04,0.00,0.00
15min,AgWx,beryljct,423,15JUL2019:05:45:00,53.2,12.87,50.3,50.9,51.2,53.0,49.9,67,72,65,0.868,40.7,41.9,39.7,1.228,2.5,174,0.5,3.3,0.00027,0.00043,66.1,69.8,9,12,.,.,16.04,0.00,0.00
15min,AgWx,beryljct,423,15JUL2019:06:00:00,52.8,12.88,49.2,49.9,50.7,51.1,49.9,71,76,66,0.924,41.6,43.6,39.8,0.702,1.0,173,0.7,2.1,0.00041,0.00049,65.8,69.7,10,59,.,.,16.04,0.00,0.00
15min,AgWx,beryljct,423,15JUL2019:06:15:00,53.2,12.88,52.0,51.6,50.5,51.6,49.7,78,85,73,0.999,43.8,46.1,41.6,0.986,1.0,173,0.9,2.8,0.00054,0.00062,65.6,69.5,10,98,.,.,16.04,0.00,0.00
15min,AgWx,beryljct,423,15JUL2019:06:30:00,54.6,12.89,53.0,53.0,52.4,53.5,51.5,75,82,71,1.124,44.7,47.7,43.4,1.403,1.1,169,28,2.2,0.00076,0.00086,65.4,69.4,10,140,.,.,16.03,0.00,0.00
15min,AgWx,beryljct,423,15JUL2019:06:45:00,56.2,12.89,54.0,53.7,53.2,53.7,52.4,77,86,71,1.010,46.0,48.5,44.2,3.968,3.9,325,12,5.3,0.00105,0.00127,65.2,69.3,9,185,.,.,16.04,0.00,0.00
15min,AgWx,beryljct,423,15JUL2019:07:00:00,57.7,12.91,57.5,57.5,55.7,57.5,53.8,65,72,59,0.954,44.1,44.9,42.8,3.617,3.7,357,9.1,4.7,0.00142,0.00174,65.0,69.2,10,233,.,.,16.04,0.00,0.00
15min,AgWx,beryljct,423,15JUL2019:07:15:00,59.7,12.91,59.4,59.5,58.4,59.7,57.4,59,61,57,1.019,44.1,45.5,42.8,3.727,3.2,5.3,13,4.2,0.00175,0.00211,64.8,69.0,9,283,.,.,16.03,0.00,0.00
15min,AgWx,beryljct,423,15JUL2019:07:30:00,62.1,12.94,62.6,62.1,60.6,62.1,59.5,60,63,56,1.074,46.8,48.6,45.0,4.209,3.7,339,4.6,4.4,0.00209,0.00250,64.7,68.9,10,333,.,.,16.03,0.00,0.00
15min,AgWx,beryljct,423,15JUL2019:07:45:00,64.7,12.98,66.7,65.4,64.0,65.4,62.1,50,56,45,0.989,45.2,47.2,43.1,2.609,3.1,359,14,4.3,0.00253,0.00301,64.6,68.8,10,384,.,.,16.02,0.00,0.00
15min,AgWx,beryljct,423,15JUL2019:08:00:00,67.5,13.08,68.6,68.6,67.1,68.6,65.5,44,48,40,0.988,44.4,46.9,42.9,3.047,2.9,11,16,4.1,0.00295,0.00348,64.5,68.7,9,435,.,.,16.02,0.00,0.00
15min,AgWx,beryljct,423,15JUL2019:08:15:00,70.3,13.21,70.7,70.4,69.2,70.4,68.3,42,45,40,1.041,45.5,47.3,43.6,2.192,2.3,29,4.0,3.2,0.00328,0.00378,64.5,68.6,10,486,.,.,16.02,0.00,0.00
15min,AgWx,beryljct,423,15JUL2019:08:30:00,73.3,13.41,73.2,73.1,71.9,73.2,70.5,38,42,33,0.955,44.9,47.0,42.1,1.82,1.9,34,2.8,2.9,0.00366,0.00417,64.6,68.5,9,535,.,.,16.01,0.00,0.00
15min,AgWx,beryljct,423,15JUL2019:08:45:00,76.2,13.66,75.4,75.2,74.2,75.2,73.1,35,39,33,0.992,44.9,47.5,42.9,0.263,1.6,42,6.6,2.8,0.00399,0.00450,64.7,68.3,9,577,.,.,16.01,0.00,0.00
15min,AgWx,beryljct,423,15JUL2019:09:00:00,79.2,13.98,76.8,77.4,76.5,77.6,75.2,31,34,29,0.941,43.8,45.7,42.7,1.337,0.8,48,15,1.8,0.00416,0.00457,64.9,68.2,9,605,.,.,16.01,0.00,0.00
15min,AgWx,beryljct,423,15JUL2019:09:15:00,81.8,13.91,79.8,80.2,78.6,80.2,77.3,30,32,29,1.013,44.6,46.9,43.1,1.293,1.5,1.7,10,3.3,0.00477,0.00534,65.1,68.1,9,671,.,.,16.00,0.00,0.00
15min,AgWx,beryljct,423,15JUL2019:09:30:00,84.1,13.86,82.5,81.7,80.8,81.7,79.8,27,31,25,0.990,44.2,46.5,42.5,0.197,2.6,94,33,4.2,0.00534,0.00617,65.4,68.0,9,714,.,.,16.00,0.00,0.00
15min,AgWx,beryljct,423,15JUL2019:09:45:00,86.0,13.89,84.1,83.5,82.6,83.5,81.9,26,27,24,1.019,44.2,46.2,42.2,3.42,2.6,94,16,4.6,0.00569,0.00655,65.8,68.0,9,754,.,.,16.00,0.00,0.00
15min,AgWx,beryljct,423,15JUL2019:10:00:00,87.8,13.89,84.7,85.3,84.7,85.3,83.6,19,26,16,0.715,37.7,44.9,34.1,4.801,3.1,100,23,5.9,0.00615,0.00718,66.2,67.9,9,793,.,.,16.00,0.00,0.00
15min,AgWx,beryljct,423,15JUL2019:10:15:00,89.0,13.79,84.7,85.4,85.7,86.2,85.3,18,21,15,0.745,36.7,41.2,33.1,4.319,4.2,86,35,8.3,0.00665,0.00796,66.7,67.8,9,828,.,.,15.99,0.00,0.00
15min,AgWx,beryljct,423,15JUL2019:10:30:00,90.0,13.82,86.4,87.2,86.7,88.3,85.4,17,20,13,0.577,36.9,40.9,30.6,6.467,4.8,91,74,8.7,0.00725,0.00871,67.2,67.8,9,897,.,.,16.00,0.00,0.00
15min,AgWx,beryljct,423,15JUL2019:10:45:00,91.1,13.76,86.9,86.7,87.4,87.9,86.7,17,23,13,0.785,36.5,44.8,30.0,7.168,4.8,255,60,10.8,0.00742,0.00892,67.7,67.7,9,912,.,.,15.99,0.00,0.00
15min,AgWx,beryljct,423,15JUL2019:11:00:00,91.3,13.75,87.7,88.3,87.2,88.3,86.4,18,26,13,0.691,39.0,48.6,30.1,13.85,8.1,204,18,18.4,0.00808,0.01017,68.2,67.7,9,934,.,.,16.00,0.00,0.00
15min,AgWx,beryljct,423,15JUL2019:11:15:00,90.9,13.36,86.3,87.9,87.0,88.2,86.0,21,29,14,0.919,41.9,50.8,33.1,6.905,8.8,211,20,15.1,0.00820,0.01038,68.7,67.7,9,939,.,.,16.00,0.00,0.00
15min,AgWx,beryljct,423,15JUL2019:11:30:00,91.0,13.32,88.8,88.6,88.0,88.8,87.2,19,24,15,0.716,40.6,45.7,35.5,13.02,9.3,200,23,25.7,0.00848,0.01079,69.2,67.7,9,960,.,.,16.00,0.00,0.00
15min,AgWx,beryljct,423,15JUL2019:11:45:00,90.8,13.45,86.3,87.0,87.4,88.7,86.8,21,24,15,1.009,42.2,45.9,34.9,9.4,12.1,210,14,16.8,0.00887,0.01159,69.6,67.7,9,972,.,.,16.00,0.00,0.00
15min,AgWx,beryljct,423,15JUL2019:12:00:00,90.3,13.36,86.8,87.5,86.8,87.5,86.4,23,27,19,0.927,44.0,48.7,40.2,11.4,11.7,223,16,17.1,0.00877,0.01136,70.1,67.7,9,986,.,.,16.00,0.00,0.00
15min,AgWx,beryljct,423,15JUL2019:12:15:00,90.2,13.36,89.4,88.2,87.4,88.2,86.9,21,24,19,1.040,43.1,46.2,40.3,5.042,11.2,219,18,19.8,0.00886,0.01144,70.5,67.8,9,997,.,.,16.00,0.00,0.00
15min,AgWx,beryljct,423,15JUL2019:12:30:00,90.7,13.34,87.2,87.4,88.4,89.6,87.2,21,25,17,1.043,43.7,47.7,39.0,13.18,11.6,214,21,17.1,0.00901,0.01166,70.9,67.8,9,1001,.,.,16.00,0.01,0.00
15min,AgWx,beryljct,423,15JUL2019:12:45:00,90.7,13.32,88.5,87.8,87.3,87.9,87.0,23,27,18,0.929,44.5,49.1,39.4,5.787,11.2,229,14,20.1,0.00889,0.01143,71.3,67.9,9,1006,.,.,16.00,0.00,0.00
15min,AgWx,beryljct,423,15JUL2019:13:00:00,91.1,13.34,87.0,87.6,88.5,89.9,87.4,20,24,17,0.952,42.6,46.8,39.1,16.68,14.3,207,16,23.6,0.00942,0.01250,71.7,68.0,9,1006,.,.,16.01,0.00,0.00
15min,AgWx,beryljct,423,15JUL2019:13:15:00,91.0,13.36,88.9,88.9,87.8,88.9,87.0,21,25,18,0.894,43.5,47.5,38.7,11.97,12.2,220,21,19.4,0.00903,0.01175,72.1,68.1,9,998,.,.,16.00,0.00,0.00
15min,AgWx,beryljct,423,15JUL2019:13:30:00,91.2,13.36,88.6,88.4,88.9,89.6,88.3,21,24,19,0.868,44.1,47.3,40.7,9.45,14.7,203,14,20.8,0.00939,0.01252,72.6,68.2,9,990,.,.,16.00,0.00,0.00
15min,AgWx,beryljct,423,15JUL2019:13:45:00,91.1,13.34,88.8,88.6,88.1,89.3,87.4,22,24,19,0.991,44.1,46.8,41.4,15.76,13.7,218,16,19.8,0.00912,0.01206,72.9,68.3,9,982,.,.,16.00,0.00,0.00
15min,AgWx,beryljct,423,15JUL2019:14:00:00,91.0,13.34,89.5,89.5,88.4,89.5,87.7,22,25,18,0.875,44.3,48.1,41.0,14.01,11.2,222,18,17.8,0.00869,0.01126,73.3,68.4,9,962,.,.,16.01,0.01,0.00
15min,AgWx,beryljct,423,15JUL2019:14:15:00,91.3,13.36,89.3,89.7,89.4,90.6,88.3,19,23,17,0.898,42.2,46.1,38.8,13.33,14.0,197,17,20.8,0.00910,0.01219,73.7,68.5,10,942,.,.,16.00,0.00,0.00
15min,AgWx,beryljct,423,15JUL2019:14:30:00,91.7,13.31,87.3,89.6,89.6,90.6,88.9,18,21,16,0.835,40.9,44.9,37.8,12.76,13.7,200,12,21.2,0.00895,0.01203,74.1,68.6,9,920,.,.,16.00,0.00,0.00
15min,AgWx,beryljct,423,15JUL2019:14:45:00,92.0,13.31,88.2,89.0,89.7,91.0,87.9,18,22,15,0.814,40.1,44.5,35.9,14.45,12.7,196,20,19.5,0.00862,0.01154,74.4,68.8,9,891,.,.,16.00,0.00,0.00
15min,AgWx,beryljct,423,15JUL2019:15:00:00,92.4,13.26,89.8,89.9,89.7,90.9,88.2,17,22,14,0.722,38.3,44.9,34.0,14.32,13.2,188,20,19.5,0.00854,0.01157,74.7,68.9,10,863,.,.,16.00,0.00,0.00
15min,AgWx,beryljct,423,15JUL2019:15:15:00,92.6,13.3,89.1,89.9,89.1,90.7,88.3,17,21,14,0.713,38.7,43.6,35.1,11.88,13.5,204,22,18.9,0.00834,0.01138,75.1,69.0,9,833,.,.,16.00,0.00,0.00
15min,AgWx,beryljct,423,15JUL2019:15:30:00,93.1,13.3,88.0,90.4,90.2,91.3,89.4,16,18,13,0.741,37.2,40.7,33.3,15.41,13.7,189,13,21.1,0.00800,0.01112,75.4,69.2,10,760,.,.,16.01,0.00,0.00
15min,AgWx,beryljct,423,15JUL2019:15:45:00,93.1,13.28,89.9,90.3,89.2,90.9,88.0,17,22,14,0.705,38.9,44.4,35.6,17.38,11.5,208,19,19.5,0.00734,0.01001,75.6,69.3,10,737,.,.,16.00,0.00,0.00
15min,AgWx,beryljct,423,15JUL2019:16:00:00,93.2,13.28,87.6,88.1,89.0,90.2,88.1,16,20,13,0.797,36.9,42.3,32.3,14.16,13.2,211,19,20.3,0.00759,0.01057,75.9,69.4,10,725,.,.,16.00,0.00,0.00
15min,AgWx,beryljct,423,15JUL2019:16:15:00,93.1,13.24,86.3,88.3,89.1,90.6,87.9,16,20,12,0.886,37.0,43.0,31.1,8.07,9.8,206,15,18.8,0.00668,0.00907,76.1,69.6,10,682,.,.,16.00,0.00,0.00
15min,AgWx,beryljct,423,15JUL2019:16:30:00,93.3,13.24,88.1,88.3,89.2,90.0,88.1,16,21,12,0.749,36.3,44.3,29.7,7.475,8.5,214,19,16.7,0.00594,0.00806,76.3,69.8,10,616,.,.,16.00,0.00,0.00
15min,AgWx,beryljct,423,15JUL2019:16:45:00,93.2,13.26,89.6,89.1,88.8,89.5,88.0,17,23,13,0.720,37.5,45.6,31.3,10,8.6,210,15,15.4,0.00578,0.00787,76.5,69.9,9,596,.,.,16.00,0.00,0.00
15min,AgWx,beryljct,423,15JUL2019:17:00:00,92.9,13.25,88.8,89.6,89.0,90.4,87.6,15,19,12,0.737,36.0,40.1,31.5,10.83,10.1,208,18,20.3,0.00578,0.00816,76.6,70.1,10,548,.,.,16.00,0.00,0.00
15min,AgWx,beryljct,423,15JUL2019:17:15:00,92.8,13.26,87.9,87.9,89.2,90.8,87.9,14,19,11,0.722,34.4,40.6,29.1,15.41,11.2,199,14,17.2,0.00570,0.00829,76.7,70.2,9,498,.,.,16.00,0.00,0.00
15min,AgWx,beryljct,423,15JUL2019:17:30:00,92.3,13.3,87.9,88.8,89.1,90.2,87.9,14,16,11,0.753,33.1,37.3,29.0,9.38,12.0,193,16,16.8,0.00555,0.00829,76.8,70.3,10,450,.,.,16.00,0.00,0.00
15min,AgWx,beryljct,423,15JUL2019:17:45:00,91.7,13.3,87.7,88.0,88.0,88.7,87.3,14,17,12,0.606,33.4,37.5,30.4,13.04,12.4,209,10,23.0,0.00518,0.00789,76.9,70.5,9,399,.,.,16.01,0.01,0.00
15min,AgWx,beryljct,423,15JUL2019:18:00:00,91.3,13.26,87.1,89.3,88.8,89.7,88.0,13,16,11,0.575,31.7,36.3,28.6,10.06,9.4,187,19,15.5,0.00428,0.00650,76.9,70.6,9,352,.,.,16.00,0.00,0.00
15min,AgWx,beryljct,423,15JUL2019:18:15:00,90.7,13.16,85.9,86.5,87.2,89.1,86.3,14,16,11,0.619,32.1,36.0,27.7,6.73,10.1,217,16,15.3,0.00401,0.00628,76.8,70.8,10,303,.,.,16.01,0.01,0.00
15min,AgWx,beryljct,423,15JUL2019:18:30:00,89.9,13.14,85.7,86.3,86.4,87.6,85.3,15,20,12,0.666,33.4,39.5,28.1,7.168,7.6,213,14,11.9,0.00303,0.00477,76.8,70.9,10,255,.,.,16.00,0.00,0.00
15min,AgWx,beryljct,423,15JUL2019:18:45:00,88.9,13.14,85.8,84.9,85.5,86.3,84.3,16,19,13,0.702,33.7,37.8,29.9,7.015,7.5,222,15,12.3,0.00262,0.00429,76.7,71.0,9,204,.,.,16.00,0.00,0.00
15min,AgWx,beryljct,423,15JUL2019:19:00:00,88.0,13.13,84.8,86.1,85.2,86.1,83.9,16,19,14,0.598,33.6,37.9,30.8,7.892,8.6,213,15,15.5,0.00176,0.00240,76.5,71.2,10,160,.,.,16.01,0.00,0.00
15min,AgWx,beryljct,423,15JUL2019:19:15:00,87.1,13.09,82.8,83.8,84.8,86.0,83.7,15,17,14,0.656,32.8,35.5,30.7,6.555,8.4,209,10,11.5,0.00162,0.00223,76.4,71.2,10,117,.,.,16.00,0.00,0.00
15min,AgWx,beryljct,423,15JUL2019:19:30:00,85.8,13.11,81.1,82.5,83.6,84.1,82.5,16,18,15,0.652,32.4,34.7,30.7,5.48,7.1,194,7.5,9.3,0.00131,0.00184,76.2,71.3,10,78,.,.,16.01,0.00,0.00
15min,AgWx,beryljct,423,15JUL2019:19:45:00,84.0,13.1,78.0,78.5,80.4,82.3,78.5,19,21,17,0.666,34.4,36.3,32.6,4.845,5.1,190,4.9,6.2,0.00082,0.00122,76.0,71.4,10,43,.,.,16.01,0.00,0.00
15min,AgWx,beryljct,423,15JUL2019:20:00:00,81.3,13.07,77.6,76.9,77.5,78.5,76.0,19,21,18,0.556,32.6,34.6,29.7,4.867,5.0,187,4.3,6.2,0.00064,0.00096,75.8,71.5,9,8,.,.,16.01,0.01,0.00
15min,AgWx,beryljct,423,15JUL2019:20:15:00,78.8,13.05,77.6,76.5,76.6,78.5,74.1,18,23,16,0.518,30.0,34.6,27.9,6.116,4.6,180,12,6.2,0.00055,0.00085,75.6,71.6,10,2,.,.,16.01,0.00,0.00
15min,AgWx,beryljct,423,15JUL2019:20:30:00,76.4,13.05,75.3,75.3,74.0,76.9,71.8,20,25,17,0.526,30.9,34.3,28.1,4.538,4.6,182,5.9,6.6,0.00052,0.00080,75.3,71.6,10,0,.,.,16.02,0.00,0.00
15min,AgWx,beryljct,423,15JUL2019:20:45:00,74.7,13.05,74.5,75.0,75.5,76.2,74.7,17,19,16,0.529,28.1,29.8,26.4,4.406,3.8,176,2.6,4.7,0.00041,0.00066,75.0,71.7,9,0,.,.,16.02,0.00,0.00
15min,AgWx,beryljct,423,15JUL2019:21:00:00,73.1,13.03,68.9,68.9,72.3,74.9,68.8,21,27,18,0.623,30.0,34.0,27.7,4.319,4.3,183,1.9,5.3,0.00045,0.00070,74.7,71.7,10,0,.,.,16.02,0.00,0.00
15min,AgWx,beryljct,423,15JUL2019:21:15:00,71.3,13.02,73.2,72.1,70.8,72.1,68.9,22,26,20,0.532,29.9,32.5,28.4,3.924,4.2,182,4.1,4.6,0.00040,0.00063,74.4,71.7,10,0,.,.,16.02,0.00,0.00
15min,AgWx,beryljct,423,15JUL2019:21:30:00,70.1,13.01,73.4,72.3,72.9,74.2,71.9,19,21,17,0.516,28.5,30.1,26.7,3.442,4.0,176,3.1,4.7,0.00041,0.00065,74.1,71.8,9,0,.,.,16.02,0.00,0.00
15min,AgWx,beryljct,423,15JUL2019:21:45:00,69.2,13.01,70.3,70.5,71.5,72.7,70.0,20,25,18,0.566,28.7,32.5,26.7,4.253,4.0,171,4.3,4.9,0.00040,0.00063,73.8,71.7,10,0,.,.,16.02,0.00,0.00
15min,AgWx,beryljct,423,15JUL2019:22:00:00,68.4,12.98,68.7,67.0,69.5,70.6,66.8,24,30,21,0.651,30.9,35.4,28.4,4.319,4.5,171,4.8,5.7,0.00043,0.00066,73.4,71.8,9,0,.,.,16.02,0.00,0.00
15min,AgWx,beryljct,423,15JUL2019:22:15:00,67.3,12.99,61.6,61.7,64.2,67.5,61.5,38,45,28,0.815,37.7,40.1,33.1,5.261,5.2,158,4.5,6.0,0.00037,0.00054,73.1,71.8,10,0,.,.,16.02,0.00,0.00
15min,AgWx,beryljct,423,15JUL2019:22:30:00,65.7,12.97,58.9,59.7,61.0,61.7,59.7,44,46,42,0.778,39.0,40.3,37.5,4.012,4.4,169,9.6,5.7,0.00022,0.00034,72.8,71.7,9,0,.,.,16.03,0.00,0.00
15min,AgWx,beryljct,423,15JUL2019:22:45:00,64.4,12.96,66.5,66.1,63.5,66.3,59.4,31,45,25,0.582,31.9,38.1,28.6,5.152,4.7,171,3.6,5.6,0.00036,0.00054,72.5,71.7,9,0,.,.,16.03,0.00,0.00
15min,AgWx,beryljct,423,15JUL2019:23:00:00,64.4,12.96,69.6,69.5,68.4,70.1,66.1,23,27,21,0.539,29.5,31.3,28.2,6.292,5.7,174,5.0,6.7,0.00058,0.00083,72.1,71.6,10,0,.,.,16.03,0.00,0.00
15min,AgWx,beryljct,423,15JUL2019:23:15:00,65.3,12.95,61.1,62.6,69.7,71.8,62.6,23,38,19,0.718,29.4,37.6,27.4,0.702,4.9,173,12,6.8,0.00052,0.00077,71.8,71.6,10,0,.,.,16.02,0.00,0.00
15min,AgWx,beryljct,423,15JUL2019:23:30:00,64.9,12.95,62.4,61.2,62.7,66.1,61.0,36,42,26,0.745,35.3,38.1,29.9,1.14,2.6,69,37,3.7,0.00006,0.00013,71.5,71.6,10,0,.,.,16.03,0.00,0.00
15min,AgWx,bigpiney,439,15JUL2019:00:00:00,56.2,12.75,46.8,47.0,48.9,51.1,47.0,79,84,74,0.916,42.8,43.9,42.3,2.806,2.8,211,21,3.8,-0.00012,-0.00015,53.3,50.3,54,0,0,0.0,3.96,0.00,0.00
15min,AgWx,bigpiney,439,15JUL2019:00:15:00,55.4,12.74,47.4,47.0,46.7,47.1,46.5,86,87,83,0.937,42.7,43.2,42.2,3.617,3.4,194,15,5.2,-0.00012,-0.00015,53.3,50.3,54,0,0,0.0,3.96,0.00,0.00
15min,AgWx,bigpiney,439,15JUL2019:00:30:00,54.7,12.74,49.3,48.8,47.8,48.8,47.1,84,85,83,0.971,43.3,43.8,42.9,3.091,4.0,227,11,6.3,-0.00010,-0.00011,53.2,50.4,54,0,0,0.0,3.96,0.00,0.00
15min,AgWx,bigpiney,439,15JUL2019:00:45:00,54.3,12.72,49.5,49.3,49.1,49.5,48.7,82,83,80,0.962,43.7,43.9,43.4,6.029,4.0,193,22,6.9,-0.00009,-0.00009,53.2,50.4,54,0,0,0.0,3.96,0.00,0.00
15min,AgWx,bigpiney,439,15JUL2019:01:00:00,54.1,12.71,50.2,50.3,50.0,50.7,49.3,77,81,74,0.954,43.1,43.7,42.7,3.793,4.1,222,23,7.0,-0.00005,-0.00005,53.1,50.4,54,0,0,0.0,3.96,0.00,0.00
15min,AgWx,bigpiney,439,15JUL2019:01:15:00,54.1,12.71,50.7,50.5,50.1,50.5,49.4,76,78,73,0.918,43.0,43.5,42.3,3.003,3.4,218,29,5.3,-0.00008,-0.00009,53.1,50.4,54,0,0,0.0,3.96,0.00,0.00
15min,AgWx,bigpiney,439,15JUL2019:01:30:00,54.1,12.7,56.1,54.1,50.8,54.1,49.6,75,79,65,0.933,43.2,44.2,42.3,15.85,6.1,244,25,18.7,0.00003,0.00006,53.1,50.4,54,0,0,0.0,3.96,0.00,0.00
15min,AgWx,bigpiney,439,15JUL2019:01:45:00,54.7,12.69,54.7,54.9,55.7,57.5,54.2,67,74,58,1.080,45.0,46.7,42.5,5.02,7.5,267,13,19.6,0.00016,0.00023,53.0,50.4,54,0,1,0.0,4.08,0.00,0.12
15min,AgWx,bigpiney,439,15JUL2019:02:00:00,55.0,12.68,56.4,55.9,55.4,55.9,54.7,72,74,70,1.068,46.7,47.1,46.3,0,2.3,274,54,10.0,-0.00013,-0.00015,53.0,50.4,54,0,1,0.0,4.08,0.00,0.00
15min,AgWx,bigpiney,439,15JUL2019:02:15:00,55.1,12.67,52.9,53.8,55.8,57.4,53.8,70,77,63,1.087,46.0,46.8,44.9,5.349,3.3,341,17,5.5,-0.00006,-0.00005,52.9,50.4,54,0,1,0.0,4.08,0.00,0.00
15min,AgWx,bigpiney,439,15JUL2019:02:30:00,55.1,12.67,53.5,53.1,52.9,53.7,52.5,81,84,77,1.090,47.3,48.0,46.8,2.499,2.5,13,16,4.7,-0.00015,-0.00018,52.9,50.4,54,0,1,0.0,4.08,0.00,0.00
15min,AgWx,bigpiney,439,15JUL2019:02:45:00,54.9,12.66,49.8,50.3,52.7,53.4,50.3,79,84,76,1.038,46.2,46.8,45.0,1.885,1.4,353,63,6.2,-0.00021,-0.00029,52.8,50.5,54,0,1,0.0,4.08,0.00,0.00
15min,AgWx,bigpiney,439,15JUL2019:03:00:00,54.3,12.65,50.5,49.8,49.0,50.3,48.0,87,89,84,1.058,45.3,46.1,44.3,1.776,3.4,247,33,5.2,-0.00013,-0.00016,52.8,50.4,54,0,1,0.0,4.08,0.00,0.00
15min,AgWx,bigpiney,439,15JUL2019:03:15:00,53.6,12.64,47.2,49.0,49.8,50.3,49.0,86,87,85,0.997,45.7,46.3,44.5,0,0.9,104,57,2.3,-0.00025,-0.00035,52.7,50.5,54,0,1,0.0,4.08,0.00,0.00
15min,AgWx,bigpiney,439,15JUL2019:03:30:00,53.0,12.64,48.2,49.0,49.8,50.9,48.0,86,89,84,1.011,45.8,46.6,43.8,0.263,0.9,294,12,2.3,-0.00025,-0.00036,52.7,50.4,54,0,1,0.0,4.08,0.00,0.00
15min,AgWx,bigpiney,439,15JUL2019:03:45:00,52.5,12.63,48.0,48.2,48.9,50.1,48.0,88,90,84,1.016,45.4,46.4,44.0,1.469,1.7,220,20,3.9,-0.00020,-0.00028,52.6,50.5,54,0,1,0.0,4.08,0.00,0.00
15min,AgWx,bigpiney,439,15JUL2019:04:00:00,52.2,12.62,47.3,47.3,47.6,48.2,47.3,91,92,88,1.013,44.9,45.4,44.6,1.6,1.6,216,21,3.2,-0.00021,-0.00029,52.6,50.5,54,0,1,0.0,4.08,0.00,0.00
15min,AgWx,bigpiney,439,15JUL2019:04:15:00,52.0,12.61,47.4,47.3,47.2,47.4,47.0,92,93,91,1.027,45.0,45.4,44.7,1.863,2.0,193,19,3.6,-0.00020,-0.00027,52.5,50.5,54,0,1,0.0,4.08,0.00,0.00
15min,AgWx,bigpiney,439,15JUL2019:04:30:00,51.9,12.59,48.8,48.6,47.7,48.6,47.3,93,93,92,1.080,45.8,46.6,45.2,2.455,2.9,228,15,3.8,-0.00017,-0.00022,52.4,50.5,54,0,1,0.0,4.08,0.00,0.00
15min,AgWx,bigpiney,439,15JUL2019:04:45:00,51.9,12.59,51.7,50.6,49.3,50.6,48.5,92,93,88,1.096,47.0,47.3,46.5,3.771,3.0,271,15,4.2,-0.00017,-0.00021,52.3,50.5,54,0,1,0.0,4.08,0.00,0.00
15min,AgWx,bigpiney,439,15JUL2019:05:00:00,52.0,12.58,51.3,51.0,51.0,51.3,50.6,85,87,85,1.082,46.8,47.0,46.6,3.201,3.1,277,6.7,3.9,-0.00013,-0.00016,52.3,50.5,54,2,1,0.0,4.08,0.00,0.00
15min,AgWx,bigpiney,439,15JUL2019:05:15:00,52.2,12.58,51.0,50.6,50.9,51.2,50.6,86,87,85,1.092,46.8,47.0,46.6,3.88,2.9,280,13,4.0,-0.00004,0.00002,52.2,50.5,54,7,1,0.0,4.08,0.00,0.00
15min,AgWx,bigpiney,439,15JUL2019:05:30:00,52.4,12.6,52.0,51.7,51.2,51.7,50.6,85,87,84,1.101,47.0,47.1,46.8,2.806,3.7,287,11,5.2,-0.00012,-0.00004,52.1,50.5,54,26,1,0.0,4.08,0.00,0.00
15min,AgWx,bigpiney,439,15JUL2019:05:45:00,52.8,12.63,50.5,50.7,51.7,52.1,50.7,84,87,83,1.098,47.1,47.3,46.9,4.275,3.3,235,21,4.8,0.00008,0.00016,52.1,50.5,54,41,1,0.0,4.08,0.00,0.00
15min,AgWx,bigpiney,439,15JUL2019:06:00:00,52.9,12.63,51.3,51.1,50.5,51.2,49.8,89,90,87,1.117,47.3,47.7,46.7,3.179,4.5,228,16,6.3,0.00023,0.00032,52.0,50.4,54,49,1,0.0,4.08,0.00,0.00
15min,AgWx,bigpiney,439,15JUL2019:06:15:00,53.2,12.66,53.0,52.6,51.5,52.6,51.0,88,88,87,1.167,48.0,48.7,47.5,4.911,4.3,223,13,6.1,0.00039,0.00050,51.9,50.5,54,124,1,0.0,4.08,0.00,0.00
15min,AgWx,bigpiney,439,15JUL2019:06:30:00,53.9,12.69,55.1,54.4,53.3,54.4,52.6,85,87,84,1.205,49.0,49.5,48.5,3.968,4.9,225,13,6.8,0.00066,0.00082,51.9,50.4,54,172,1,0.0,4.08,0.00,0.00
15min,AgWx,bigpiney,439,15JUL2019:06:45:00,55.1,12.78,57.5,56.8,55.2,56.8,54.4,83,84,80,1.265,50.0,51.2,49.3,5.765,4.5,268,42,7.2,0.00093,0.00112,51.8,50.5,54,212,1,0.0,4.08,0.00,0.00
15min,AgWx,bigpiney,439,15JUL2019:07:00:00,56.6,12.74,56.2,56.3,56.3,57.2,55.7,81,84,78,1.286,50.7,51.4,49.9,0.395,2.1,33,33,5.9,0.00111,0.00125,51.8,50.4,54,232,1,0.0,4.08,0.00,0.00
15min,AgWx,bigpiney,439,15JUL2019:07:15:00,58.2,12.79,59.5,59.2,57.7,59.2,56.3,80,83,76,1.302,51.6,52.8,50.3,1.513,1.1,282,29,3.0,0.00155,0.00169,51.7,50.5,54,314,1,0.0,4.08,0.00,0.00
15min,AgWx,bigpiney,439,15JUL2019:07:30:00,60.2,12.97,64.3,63.8,61.6,63.8,59.2,71,75,64,1.372,51.9,53.1,50.6,2.74,1.7,235,23,4.0,0.00205,0.00228,51.6,50.4,54,383,0,0.0,4.08,0.00,0.00
15min,AgWx,bigpiney,439,15JUL2019:07:45:00,62.5,13.34,65.4,65.1,64.6,65.1,64.0,60,69,54,1.182,50.3,53.7,47.8,3.464,3.6,254,14,5.5,0.00268,0.00313,51.6,50.5,54,449,0,0.0,4.08,0.00,0.00
15min,AgWx,bigpiney,439,15JUL2019:08:00:00,64.4,13.45,65.9,64.9,64.9,65.2,64.5,56,59,48,1.191,48.7,50.3,44.7,1.754,2.9,236,13,4.3,0.00221,0.00261,51.5,50.4,54,341,0,0.0,4.08,0.00,0.00
15min,AgWx,bigpiney,439,15JUL2019:08:15:00,66.0,13.65,66.7,66.2,66.0,66.7,65.0,56,59,50,1.216,49.7,51.8,46.8,3.332,2.8,227,22,6.0,0.00321,0.00367,51.5,50.4,54,524,0,0.0,4.08,0.00,0.00
15min,AgWx,bigpiney,439,15JUL2019:08:30:00,67.9,13.46,66.3,67.0,66.9,67.4,66.2,54,58,48,1.162,49.6,51.7,46.4,3.464,3.2,208,26,4.7,0.00366,0.00419,51.5,50.4,54,578,0,0.0,4.08,0.00,0.00